Location: Biharia
(46.4333°N, 22.8000°E)
Time: 20:42:07
(UTC+00:00)

Cosmos 2278 Rocket - Pass Details

Date: 16 October 2021
Orbit: 841 x 845 km, 71.0° (Epoch: 29 November)

Event Time Altitude Azimuth Distance (km) Brightness Sun altitude
Rises 17:58:43 0° 341° (NNW) 3,417 5.8 -24.5°
Reaches altitude 10° 18:04:12 10° 24° (NNE) 2,476 4.5 -25.4°
Enters shadow 18:04:24 10° 26° (NNE) 2,470 4.5 -25.5°
